Weather History for KIML - July, 2013

Change the Weather History Date:

Sunday, July 21, 2013

  Actual Average Record
Temperature  
Mean Temperature 75 °F 77 °F  
Max Temperature 92 °F 92 °F 107 °F (1934)
Min Temperature 57 °F 63 °F 51 °F (1906)
Degree Days  
Heating Degree Days 0 0  
Month to date heating degree days 0 0  
Since 1 June heating degree days 24 34  
Cooling Degree Days 10 12  
Month to date cooling degree days 247 236  
Year to date cooling degree days 546 464  
Since 1 June cooling degree days 478 420  
Growing Degree Days 24 (Base 50)    
Moisture  
Dew Point 57 °F    
Average Humidity 63    
Maximum Humidity 93    
Minimum Humidity 32    
Precipitation  
Precipitation 0.00 in 0.09 in 2.20 in (1978)
Sea Level Pressure  
Sea Level Pressure 29.83 in    
Wind  
Wind Speed 9 mph (SSE)    
Max Wind Speed 16 mph    
Max Gust Speed 26 mph    
Visibility 10 miles    
Events      
T = Trace of Precipitation, MM = Missing Value Source: NWS Daily Summary

Daily Weather History Graph

Daily Weather History Graph

Search for Another Location

Airport or City:

Trip Planner

Search our weather history database for the weather conditions in past years. The results will help you decide how hot, cold, wet, or windy it might be!

Date:

Astronomy

Jul. 21, 2013 Rise Set
Actual Time 5:33 AM MDT 8:11 PM MDT
Civil Twilight 5:02 AM MDT 8:42 PM MDT
Nautical Twilight 4:22 AM MDT 9:22 PM MDT
Astronomical Twilight 3:38 AM MDT 10:06 PM MDT
Moon 7:11 PM MDT (7/21) 4:22 AM MDT (7/21)
Length of Visible Light 15h 40m
Length of Day
14h 37m
Waxing Gibbous, 98% of the Moon is Illuminated
Jul 21
Waxing Gibbous
Jul 22
Full
Jul 29
Last Quarter
Aug 6
New
Aug 14
First Quarter

Hourly Weather History & Observations

Time (MDT) Temp. Heat Index Dew Point Humidity Pressure Visibility Wind Dir Wind Speed Gust Speed Precip Events Conditions
12:53 AM 62.1 °F - 55.0 °F 78% 29.88 in 10.0 mi SE 11.5 mph - N/A   Clear
1:53 AM 61.0 °F - 55.0 °F 81% 29.88 in 10.0 mi SSE 12.7 mph - N/A   Clear
2:53 AM 60.1 °F - 55.0 °F 83% 29.88 in 10.0 mi SSE 8.1 mph - N/A   Clear
3:53 AM 59.0 °F - 55.0 °F 87% 29.86 in 10.0 mi SSW 4.6 mph - N/A   Clear
4:53 AM 57.9 °F - 55.0 °F 90% 29.88 in 10.0 mi Calm Calm - N/A   Clear
5:53 AM 59.0 °F - 55.0 °F 87% 29.95 in 10.0 mi NNE 11.5 mph 18.4 mph N/A   Mostly Cloudy
6:53 AM 61.0 °F - 57.0 °F 87% 29.96 in 10.0 mi NE 8.1 mph - N/A   Overcast
7:53 AM 66.9 °F - 57.0 °F 70% 29.94 in 10.0 mi NE 4.6 mph - N/A   Overcast
8:53 AM 73.0 °F - 55.0 °F 53% 29.89 in 10.0 mi ESE 15.0 mph - N/A   Clear
9:53 AM 77.0 °F - 54.0 °F 45% 29.88 in 10.0 mi ESE 13.8 mph - N/A   Clear
10:53 AM 81.0 °F 80.8 °F 55.9 °F 42% 29.88 in 10.0 mi SSE 10.4 mph - N/A   Clear
11:53 AM 84.0 °F 83.3 °F 57.0 °F 40% 29.86 in 10.0 mi ESE 11.5 mph 17.3 mph N/A   Clear
12:53 PM 87.1 °F 86.1 °F 57.9 °F 37% 29.83 in 10.0 mi SE 8.1 mph 20.7 mph N/A   Clear
1:53 PM 90.0 °F 88.8 °F 57.9 °F 34% 29.81 in 10.0 mi SSE 11.5 mph 16.1 mph N/A   Clear
2:53 PM 90.0 °F 89.7 °F 60.1 °F 37% 29.80 in 10.0 mi SW 8.1 mph - N/A   Clear
3:53 PM 91.0 °F 90.9 °F 61.0 °F 36% 29.78 in 10.0 mi South 10.4 mph 26.5 mph N/A   Clear
4:53 PM 91.9 °F 90.8 °F 57.9 °F 32% 29.77 in 10.0 mi SW 13.8 mph 19.6 mph N/A   Clear
5:53 PM 90.0 °F 88.8 °F 57.9 °F 34% 29.75 in 10.0 mi South 11.5 mph - N/A   Clear
6:53 PM 88.0 °F 86.9 °F 57.9 °F 36% 29.74 in 10.0 mi South 10.4 mph - N/A   Clear
7:53 PM 84.0 °F 83.5 °F 57.9 °F 41% 29.73 in 10.0 mi SSE 9.2 mph - N/A   Clear
8:53 PM 79.0 °F - 59.0 °F 50% 29.75 in 10.0 mi SSE 8.1 mph - N/A   Clear
9:53 PM 75.9 °F - 61.0 °F 60% 29.75 in 10.0 mi SSE 6.9 mph - N/A   Clear
10:53 PM 73.9 °F - 62.1 °F 66% 29.76 in 10.0 mi SSE 6.9 mph - N/A   Clear
11:53 PM 73.0 °F - 63.0 °F 71% 29.77 in 10.0 mi SE 5.8 mph - N/A   Clear